Time,TemperatureF,DewpointF,PressureIn,WindDirection,WindDirectionDegrees,WindSpeedMPH,WindSpeedGustMPH,Humidity,HourlyPrecipIn,Conditions,Clouds,dailyrainin,SoftwareType,DateUTC
2013-10-22 00:00:00,32.1,24.4,29.83,SW,226,0.0,2.0,73,0.00,CLR,,0.00,WeatherDisplay:10.37,2013-10-22 05:00:00,
2013-10-22 00:05:00,32.1,24.1,29.83,WSW,247,0.0,5.0,72,0.00,CLR,,0.00,WeatherDisplay:10.37,2013-10-22 05:05:00,
2013-10-22 00:10:00,32.1,24.1,29.83,West,260,0.0,2.0,72,0.00,CLR,,0.00,WeatherDisplay:10.37,2013-10-22 05:10:00,
2013-10-22 00:15:00,32.1,24.1,29.83,WSW,246,1.0,4.0,72,0.00,CLR,,0.00,WeatherDisplay:10.37,2013-10-22 05:15:00,
2013-10-22 00:20:00,32.1,24.4,29.82,SW,234,1.0,4.0,73,0.00,CLR,,0.00,WeatherDisplay:10.37,2013-10-22 05:20:00,
2013-10-22 00:25:00,32.1,24.4,29.82,WSW,240,0.0,4.0,73,0.00,CLR,,0.00,WeatherDisplay:10.37,2013-10-22 05:25:00,
2013-10-22 00:30:00,31.9,24.2,29.82,WSW,242,0.0,4.0,73,0.00,CLR,,0.00,WeatherDisplay:10.37,2013-10-22 05:30:00,
2013-10-22 00:35:00,31.8,24.1,29.83,WSW,254,0.0,2.0,73,0.00,CLR,,0.00,WeatherDisplay:10.37,2013-10-22 05:35:00,
2013-10-22 00:45:00,31.8,24.5,29.83,WSW,248,0.0,3.0,74,0.00,CLR,,0.00,WeatherDisplay:10.37,2013-10-22 05:45:00,
2013-10-22 00:50:00,31.6,24.3,29.83,West,273,0.0,4.0,74,0.00,CLR,,0.00,WeatherDisplay:10.37,2013-10-22 05:50:00,
2013-10-22 00:55:00,31.6,24.3,29.83,WNW,291,0.0,2.0,74,0.00,CLR,,0.00,WeatherDisplay:10.37,2013-10-22 05:55:00,
2013-10-22 01:00:00,31.6,24.6,29.83,WNW,303,0.0,1.0,75,0.00,CLR,,0.00,WeatherDisplay:10.37,2013-10-22 06:00:00,
2013-10-22 01:05:00,31.5,24.5,29.83,WNW,303,0.0,2.0,75,0.00,CLR,,0.00,WeatherDisplay:10.37,2013-10-22 06:05:00,
2013-10-22 01:10:00,31.3,24.6,29.83,NW,304,0.0,2.0,76,0.00,CLR,,0.00,WeatherDisplay:10.37,2013-10-22 06:10:00,
2013-10-22 01:15:00,31.3,24.3,29.83,West,265,1.0,5.0,75,0.00,CLR,,0.00,WeatherDisplay:10.37,2013-10-22 06:15:00,
2013-10-22 01:20:00,31.3,24.6,29.83,SW,235,0.0,1.0,76,0.00,CLR,,0.00,WeatherDisplay:10.37,2013-10-22 06:20:00,
2013-10-22 01:25:00,31.3,24.6,29.83,WSW,242,0.0,3.0,76,0.00,CLR,,0.00,WeatherDisplay:10.37,2013-10-22 06:25:00,
2013-10-22 01:30:00,31.3,24.6,29.83,West,264,0.0,4.0,76,0.00,CLR,,0.00,WeatherDisplay:10.37,2013-10-22 06:30:00,
2013-10-22 01:35:00,31.2,24.5,29.83,West,268,0.0,3.0,76,0.00,CLR,,0.00,WeatherDisplay:10.37,2013-10-22 06:35:00,
2013-10-22 01:40:00,31.2,24.5,29.83,West,276,0.0,2.0,76,0.00,CLR,,0.00,WeatherDisplay:10.37,2013-10-22 06:40:00,
2013-10-22 01:45:00,31.0,24.3,29.83,West,270,1.0,4.0,76,0.00,CLR,,0.00,WeatherDisplay:10.37,2013-10-22 06:45:00,
2013-10-22 01:50:00,31.0,24.3,29.83,WSW,254,0.0,2.0,76,0.00,CLR,,0.00,WeatherDisplay:10.37,2013-10-22 06:50:00,
2013-10-22 01:55:00,31.0,24.6,29.83,West,269,0.0,4.0,77,0.00,CLR,,0.00,WeatherDisplay:10.37,2013-10-22 06:55:00,
2013-10-22 02:00:00,30.9,24.5,29.83,West,280,0.0,7.0,77,0.00,CLR,,0.00,WeatherDisplay:10.37,2013-10-22 07:00:00,
2013-10-22 02:05:00,30.9,24.5,29.83,WNW,295,0.0,1.0,77,0.00,CLR,,0.00,WeatherDisplay:10.37,2013-10-22 07:05:00,
2013-10-22 02:10:00,30.9,24.5,29.83,WNW,303,0.0,3.0,77,0.00,CLR,,0.00,WeatherDisplay:10.37,2013-10-22 07:10:00,
2013-10-22 02:15:00,31.0,24.6,29.83,NW,316,0.0,1.0,77,0.00,CLR,,0.00,WeatherDisplay:10.37,2013-10-22 07:15:00,
2013-10-22 02:20:00,30.9,24.5,29.84,NW,314,0.0,2.0,77,0.00,CLR,,0.00,WeatherDisplay:10.37,2013-10-22 07:20:00,
2013-10-22 02:25:00,30.7,24.3,29.84,WNW,301,0.0,1.0,77,0.00,CLR,,0.00,WeatherDisplay:10.37,2013-10-22 07:25:00,
2013-10-22 02:30:00,30.6,24.6,29.84,WNW,287,0.0,2.0,78,0.00,CLR,,0.00,WeatherDisplay:10.37,2013-10-22 07:30:00,
2013-10-22 02:40:00,30.3,24.3,29.83,NNE,31,0.0,2.0,78,0.00,CLR,,0.00,WeatherDisplay:10.37,2013-10-22 07:40:00,
2013-10-22 02:45:00,30.3,24.6,29.83,North,4,0.0,2.0,79,0.00,CLR,,0.00,WeatherDisplay:10.37,2013-10-22 07:45:00,
2013-10-22 02:50:00,30.1,24.4,29.83,NW,317,0.0,3.0,79,0.00,CLR,,0.00,WeatherDisplay:10.37,2013-10-22 07:50:00,
2013-10-22 02:55:00,30.1,24.7,29.83,WNW,290,0.0,1.0,80,0.00,CLR,,0.00,WeatherDisplay:10.37,2013-10-22 07:55:00,
2013-10-22 03:00:00,30.0,24.6,29.83,West,276,0.0,2.0,80,0.00,CLR,,0.00,WeatherDisplay:10.37,2013-10-22 08:00:00,
2013-10-22 03:05:00,30.1,24.7,29.83,West,264,0.0,5.0,80,0.00,CLR,,0.00,WeatherDisplay:10.37,2013-10-22 08:05:00,
2013-10-22 03:10:00,30.3,24.9,29.83,West,276,0.0,1.0,80,0.00,CLR,,0.00,WeatherDisplay:10.37,2013-10-22 08:10:00,
2013-10-22 03:15:00,30.3,24.9,29.83,NW,314,0.0,2.0,80,0.00,CLR,,0.00,WeatherDisplay:10.37,2013-10-22 08:15:00,
2013-10-22 03:20:00,30.4,24.7,29.83,WNW,290,0.0,3.0,79,0.00,CLR,,0.00,WeatherDisplay:10.37,2013-10-22 08:20:00,
2013-10-22 03:25:00,30.6,24.9,29.83,West,277,0.0,2.0,79,0.00,CLR,,0.00,WeatherDisplay:10.37,2013-10-22 08:25:00,
2013-10-22 03:30:00,30.6,24.9,29.83,WNW,286,0.0,2.0,79,0.00,CLR,,0.00,WeatherDisplay:10.37,2013-10-22 08:30:00,
2013-10-22 03:35:00,30.4,24.7,29.83,WSW,250,0.0,5.0,79,0.00,CLR,,0.00,WeatherDisplay:10.37,2013-10-22 08:35:00,
2013-10-22 03:40:00,30.6,24.9,29.83,SW,221,0.0,3.0,79,0.00,CLR,,0.00,WeatherDisplay:10.37,2013-10-22 08:40:00,
2013-10-22 03:45:00,30.6,24.9,29.83,SW,233,0.0,2.0,79,0.00,CLR,,0.00,WeatherDisplay:10.37,2013-10-22 08:45:00,
2013-10-22 03:50:00,30.9,24.8,29.83,West,263,2.0,4.0,78,0.00,CLR,,0.00,WeatherDisplay:10.37,2013-10-22 08:50:00,
2013-10-22 03:55:00,31.0,24.6,29.83,West,279,0.0,2.0,77,0.00,CLR,,0.00,WeatherDisplay:10.37,2013-10-22 08:55:00,
2013-10-22 04:00:00,31.2,25.1,29.83,WNW,291,0.0,4.0,78,0.00,CLR,,0.00,WeatherDisplay:10.37,2013-10-22 09:00:00,
2013-10-22 04:05:00,31.3,25.2,29.83,WNW,296,1.0,7.0,78,0.00,CLR,,0.00,WeatherDisplay:10.37,2013-10-22 09:05:00,
2013-10-22 04:10:00,31.3,25.2,29.83,WNW,282,0.0,4.0,78,0.00,CLR,,0.00,WeatherDisplay:10.37,2013-10-22 09:10:00,
2013-10-22 04:15:00,31.3,25.2,29.83,WSW,253,0.0,4.0,78,0.00,CLR,,0.00,WeatherDisplay:10.37,2013-10-22 09:15:00,
2013-10-22 04:20:00,31.3,24.9,29.84,West,277,0.0,3.0,77,0.00,CLR,,0.00,WeatherDisplay:10.37,2013-10-22 09:20:00,
2013-10-22 04:30:00,31.3,25.2,29.84,NW,307,0.0,5.0,78,0.00,CLR,,0.00,WeatherDisplay:10.37,2013-10-22 09:30:00,
2013-10-22 04:35:00,31.3,25.2,29.84,NW,314,0.0,1.0,78,0.00,CLR,,0.00,WeatherDisplay:10.37,2013-10-22 09:35:00,
2013-10-22 04:40:00,31.3,25.5,29.84,NW,312,1.0,5.0,79,0.00,CLR,,0.00,WeatherDisplay:10.37,2013-10-22 09:40:00,
2013-10-22 04:45:00,31.5,25.4,29.84,NW,316,0.0,2.0,78,0.00,CLR,,0.00,WeatherDisplay:10.37,2013-10-22 09:45:00,
2013-10-22 04:50:00,31.3,25.2,29.84,NW,308,0.0,3.0,78,0.00,CLR,,0.00,WeatherDisplay:10.37,2013-10-22 09:50:00,
2013-10-22 04:55:00,31.3,25.2,29.84,NW,319,1.0,4.0,78,0.00,CLR,,0.00,WeatherDisplay:10.37,2013-10-22 09:55:00,
2013-10-22 05:00:00,31.3,25.5,29.84,WNW,303,1.0,3.0,79,0.00,CLR,,0.00,WeatherDisplay:10.37,2013-10-22 10:00:00,
2013-10-22 05:05:00,31.2,25.4,29.84,West,263,1.0,3.0,79,0.00,CLR,,0.00,WeatherDisplay:10.37,2013-10-22 10:05:00,
2013-10-22 05:10:00,31.0,25.2,29.84,West,261,0.0,2.0,79,0.00,CLR,,0.00,WeatherDisplay:10.37,2013-10-22 10:10:00,
2013-10-22 05:15:00,30.9,25.2,29.84,NW,305,0.0,3.0,79,0.00,CLR,,0.00,WeatherDisplay:10.37,2013-10-22 10:15:00,
2013-10-22 05:20:00,30.7,25.3,29.85,NW,312,0.0,3.0,80,0.00,CLR,,0.00,WeatherDisplay:10.37,2013-10-22 10:20:00,
2013-10-22 05:25:00,30.6,25.2,29.85,WNW,283,0.0,1.0,80,0.00,CLR,,0.00,WeatherDisplay:10.37,2013-10-22 10:25:00,
2013-10-22 05:30:00,30.4,25.0,29.85,West,269,0.0,3.0,80,0.00,CLR,,0.00,WeatherDisplay:10.37,2013-10-22 10:30:00,
2013-10-22 05:35:00,30.4,25.0,29.85,West,268,1.0,4.0,80,0.00,CLR,,0.00,WeatherDisplay:10.37,2013-10-22 10:35:00,
2013-10-22 05:40:00,30.3,24.9,29.85,WSW,253,0.0,2.0,80,0.00,CLR,,0.00,WeatherDisplay:10.37,2013-10-22 10:40:00,
2013-10-22 05:45:00,30.1,25.0,29.85,West,281,0.0,3.0,81,0.00,CLR,,0.00,WeatherDisplay:10.37,2013-10-22 10:45:00,
2013-10-22 05:50:00,29.9,24.7,29.85,WNW,285,0.0,2.0,81,0.00,CLR,,0.00,WeatherDisplay:10.37,2013-10-22 10:50:00,
2013-10-22 05:55:00,29.7,24.9,29.85,WNW,286,0.0,2.0,82,0.00,CLR,,0.00,WeatherDisplay:10.37,2013-10-22 10:55:00,
2013-10-22 06:00:00,29.5,24.7,29.85,WNW,286,0.0,0.0,82,0.00,CLR,,0.00,WeatherDisplay:10.37,2013-10-22 11:00:00,
2013-10-22 06:05:00,29.3,24.8,29.85,WNW,286,0.0,1.0,83,0.00,CLR,,0.00,WeatherDisplay:10.37,2013-10-22 11:05:00,
2013-10-22 06:10:00,29.1,24.9,29.85,WNW,286,0.0,1.0,84,0.00,CLR,,0.00,WeatherDisplay:10.37,2013-10-22 11:10:00,
2013-10-22 06:15:00,29.1,24.9,29.85,WNW,286,0.0,2.0,84,0.00,CLR,,0.00,WeatherDisplay:10.37,2013-10-22 11:15:00,
2013-10-22 06:20:00,29.3,25.1,29.85,West,275,0.0,3.0,84,0.00,CLR,,0.00,WeatherDisplay:10.37,2013-10-22 11:20:00,
2013-10-22 06:25:00,29.3,25.1,29.85,West,272,0.0,2.0,84,0.00,CLR,,0.00,WeatherDisplay:10.37,2013-10-22 11:25:00,
2013-10-22 06:30:00,29.1,24.9,29.85,West,271,0.0,2.0,84,0.00,CLR,,0.00,WeatherDisplay:10.37,2013-10-22 11:30:00,
2013-10-22 06:35:00,29.0,24.8,29.85,West,271,0.0,1.0,84,0.00,CLR,,0.00,WeatherDisplay:10.37,2013-10-22 11:35:00,
2013-10-22 06:40:00,28.9,25.0,29.85,West,271,1.0,3.0,85,0.00,CLR,,0.00,WeatherDisplay:10.37,2013-10-22 11:40:00,
2013-10-22 06:45:00,28.8,24.9,29.85,West,271,0.0,0.0,85,0.00,CLR,,0.00,WeatherDisplay:10.37,2013-10-22 11:45:00,
2013-10-22 06:50:00,28.7,24.8,29.85,West,271,0.0,0.0,85,0.00,CLR,,0.00,WeatherDisplay:10.37,2013-10-22 11:50:00,
2013-10-22 06:55:00,28.5,24.6,29.85,West,271,0.0,1.0,85,0.00,CLR,,0.00,WeatherDisplay:10.37,2013-10-22 11:55:00,
2013-10-22 07:00:00,28.2,24.6,29.85,West,271,0.0,0.0,86,0.00,CLR,,0.00,WeatherDisplay:10.37,2013-10-22 12:00:00,
2013-10-22 07:05:00,28.1,24.5,29.85,West,265,0.0,3.0,86,0.00,CLR,,0.00,WeatherDisplay:10.37,2013-10-22 12:05:00,
2013-10-22 07:10:00,27.9,24.5,29.85,SW,215,0.0,2.0,87,0.00,CLR,,0.00,WeatherDisplay:10.37,2013-10-22 12:10:00,
2013-10-22 07:15:00,27.8,24.4,29.85,South,173,0.0,1.0,87,0.00,CLR,,0.00,WeatherDisplay:10.37,2013-10-22 12:15:00,
2013-10-22 07:20:00,27.6,24.2,29.85,SSW,201,0.0,2.0,87,0.00,CLR,,0.00,WeatherDisplay:10.37,2013-10-22 12:20:00,
2013-10-22 07:25:00,27.5,24.4,29.85,SW,226,0.0,0.0,88,0.00,CLR,,0.00,WeatherDisplay:10.37,2013-10-22 12:25:00,
2013-10-22 07:30:00,27.5,24.4,29.85,SW,226,0.0,0.0,88,0.00,CLR,,0.00,WeatherDisplay:10.37,2013-10-22 12:30:00,
2013-10-22 07:35:00,27.5,24.4,29.85,SW,226,0.0,0.0,88,0.00,CLR,,0.00,WeatherDisplay:10.37,2013-10-22 12:35:00,
2013-10-22 07:40:00,27.5,24.4,29.85,SW,226,0.0,2.0,88,0.00,CLR,,0.00,WeatherDisplay:10.37,2013-10-22 12:40:00,
2013-10-22 07:45:00,27.6,24.8,29.85,SW,226,0.0,0.0,89,0.00,CLR,,0.00,WeatherDisplay:10.37,2013-10-22 12:45:00,
2013-10-22 07:50:00,27.6,24.5,29.85,SW,226,0.0,0.0,88,0.00,CLR,,0.00,WeatherDisplay:10.37,2013-10-22 12:50:00,
2013-10-22 07:55:00,27.8,24.7,29.85,SW,226,0.0,0.0,88,0.00,CLR,,0.00,WeatherDisplay:10.37,2013-10-22 12:55:00,
2013-10-22 08:00:00,28.0,25.0,29.85,SW,226,0.0,0.0,88,0.00,CLR,,0.00,WeatherDisplay:10.37,2013-10-22 13:00:00,
2013-10-22 08:05:00,28.1,25.0,29.86,SW,226,0.0,1.0,88,0.00,CLR,,0.00,WeatherDisplay:10.37,2013-10-22 13:05:00,
2013-10-22 08:10:00,28.2,25.1,29.86,SW,226,0.0,2.0,88,0.00,CLR,,0.00,WeatherDisplay:10.37,2013-10-22 13:10:00,
2013-10-22 08:15:00,28.4,25.3,29.86,SW,226,0.0,2.0,88,0.00,CLR,,0.00,WeatherDisplay:10.37,2013-10-22 13:15:00,
2013-10-22 08:20:00,28.6,25.5,29.86,SW,226,0.0,2.0,88,0.00,CLR,,0.00,WeatherDisplay:10.37,2013-10-22 13:20:00,
2013-10-22 08:25:00,28.8,25.4,29.86,SW,226,0.0,0.0,87,0.00,CLR,,0.00,WeatherDisplay:10.37,2013-10-22 13:25:00,
2013-10-22 08:30:00,29.0,25.6,29.86,SW,226,0.0,1.0,87,0.00,CLR,,0.00,WeatherDisplay:10.37,2013-10-22 13:30:00,
2013-10-22 08:35:00,29.3,25.9,29.87,SW,226,0.0,2.0,87,0.00,CLR,,0.00,WeatherDisplay:10.37,2013-10-22 13:35:00,
2013-10-22 08:40:00,29.5,26.1,29.87,SW,226,0.0,0.0,87,0.00,CLR,,0.00,WeatherDisplay:10.37,2013-10-22 13:40:00,
2013-10-22 08:45:00,29.8,26.1,29.87,SW,226,0.0,0.0,86,0.00,CLR,,0.00,WeatherDisplay:10.37,2013-10-22 13:45:00,
2013-10-22 08:50:00,30.3,26.6,29.87,WSW,237,0.0,2.0,86,0.00,CLR,,0.00,WeatherDisplay:10.37,2013-10-22 13:50:00,
2013-10-22 08:55:00,30.6,26.7,29.87,WSW,256,0.0,2.0,85,0.00,CLR,,0.00,WeatherDisplay:10.37,2013-10-22 13:55:00,
2013-10-22 09:00:00,30.9,26.9,29.87,WSW,258,0.0,2.0,85,0.00,CLR,,0.00,WeatherDisplay:10.37,2013-10-22 14:00:00,
2013-10-22 09:05:00,31.2,27.2,29.87,West,268,0.0,2.0,85,0.00,CLR,,0.00,WeatherDisplay:10.37,2013-10-22 14:05:00,
2013-10-22 09:10:00,31.3,27.3,29.87,West,273,0.0,2.0,85,0.00,CLR,,0.00,WeatherDisplay:10.37,2013-10-22 14:10:00,
2013-10-22 09:15:00,31.6,27.6,29.87,West,273,0.0,2.0,85,0.00,CLR,,0.00,WeatherDisplay:10.37,2013-10-22 14:15:00,
2013-10-22 09:20:00,31.9,27.6,29.87,West,273,0.0,4.0,84,0.00,CLR,,0.00,WeatherDisplay:10.37,2013-10-22 14:20:00,
2013-10-22 09:25:00,32.1,27.8,29.87,West,272,0.0,3.0,84,0.00,CLR,,0.00,WeatherDisplay:10.37,2013-10-22 14:25:00,
2013-10-22 09:30:00,32.5,28.2,29.87,West,277,0.0,3.0,84,0.00,CLR,,0.00,WeatherDisplay:10.37,2013-10-22 14:30:00,
2013-10-22 09:35:00,32.9,28.6,29.87,WNW,283,0.0,3.0,84,0.00,CLR,,0.00,WeatherDisplay:10.37,2013-10-22 14:35:00,
2013-10-22 09:40:00,33.2,28.0,29.87,WNW,287,0.0,3.0,81,0.00,CLR,,0.00,WeatherDisplay:10.37,2013-10-22 14:40:00,
2013-10-22 09:45:00,33.5,28.3,29.87,NW,311,0.0,3.0,81,0.00,CLR,,0.00,WeatherDisplay:10.37,2013-10-22 14:45:00,
2013-10-22 09:50:00,33.8,28.6,29.87,WSW,253,0.0,4.0,81,0.00,CLR,,0.00,WeatherDisplay:10.37,2013-10-22 14:50:00,
2013-10-22 09:55:00,34.1,28.6,29.87,SW,227,0.0,4.0,80,0.00,CLR,,0.00,WeatherDisplay:10.37,2013-10-22 14:55:00,
2013-10-22 10:00:00,34.6,29.1,29.87,SW,230,0.0,1.0,80,0.00,CLR,,0.00,WeatherDisplay:10.37,2013-10-22 15:00:00,
2013-10-22 10:05:00,34.7,28.8,29.87,NW,306,0.0,3.0,79,0.00,CLR,,0.00,WeatherDisplay:10.37,2013-10-22 15:05:00,
2013-10-22 10:10:00,35.0,29.2,29.87,NW,322,0.0,1.0,79,0.00,CLR,,0.00,WeatherDisplay:10.37,2013-10-22 15:10:00,
2013-10-22 10:15:00,35.5,29.3,29.87,NW,308,1.0,5.0,78,0.00,CLR,,0.00,WeatherDisplay:10.37,2013-10-22 15:15:00,
2013-10-22 10:20:00,35.8,29.3,29.87,WNW,291,0.0,2.0,77,0.00,CLR,,0.00,WeatherDisplay:10.37,2013-10-22 15:20:00,
2013-10-22 10:25:00,35.9,29.1,29.87,NW,315,0.0,3.0,76,0.00,CLR,,0.00,WeatherDisplay:10.37,2013-10-22 15:25:00,
2013-10-22 10:30:00,36.2,29.4,29.87,NW,319,0.0,2.0,76,0.00,CLR,,0.00,WeatherDisplay:10.37,2013-10-22 15:30:00,
2013-10-22 10:35:00,36.3,29.5,29.87,NW,320,1.0,5.0,76,0.00,CLR,,0.00,WeatherDisplay:10.37,2013-10-22 15:35:00,
2013-10-22 10:40:00,36.6,29.4,29.87,NW,320,0.0,2.0,75,0.00,CLR,,0.00,WeatherDisplay:10.37,2013-10-22 15:40:00,
2013-10-22 10:45:00,37.0,29.4,29.87,NW,322,1.0,3.0,74,0.00,CLR,,0.00,WeatherDisplay:10.37,2013-10-22 15:45:00,
2013-10-22 10:50:00,37.5,29.6,29.86,NNW,337,0.0,5.0,73,0.00,CLR,,0.00,WeatherDisplay:10.37,2013-10-22 15:50:00,
2013-10-22 10:55:00,37.8,29.9,29.86,NNW,327,1.0,3.0,73,0.00,CLR,,0.00,WeatherDisplay:10.37,2013-10-22 15:55:00,
2013-10-22 11:00:00,38.3,30.7,29.86,WNW,303,1.0,3.0,74,0.00,CLR,,0.00,WeatherDisplay:10.37,2013-10-22 16:00:00,
2013-10-22 11:05:00,38.5,30.3,29.86,WNW,286,1.0,2.0,72,0.00,CLR,,0.00,WeatherDisplay:10.37,2013-10-22 16:05:00,
2013-10-22 11:10:00,38.7,31.1,29.86,WNW,298,0.0,2.0,74,0.00,CLR,,0.00,WeatherDisplay:10.37,2013-10-22 16:10:00,
2013-10-22 11:15:00,39.2,31.3,29.86,WNW,303,0.0,2.0,73,0.00,CLR,,0.00,WeatherDisplay:10.37,2013-10-22 16:15:00,
2013-10-22 11:20:00,39.8,31.2,29.86,West,265,0.0,3.0,71,0.00,CLR,,0.00,WeatherDisplay:10.37,2013-10-22 16:20:00,
2013-10-22 11:25:00,39.8,31.2,29.86,West,261,0.0,4.0,71,0.00,CLR,,0.00,WeatherDisplay:10.37,2013-10-22 16:25:00,
2013-10-22 11:30:00,40.1,31.8,29.86,WSW,254,1.0,3.0,72,0.00,CLR,,0.00,WeatherDisplay:10.37,2013-10-22 16:30:00,
2013-10-22 11:35:00,40.6,31.6,29.86,WSW,243,0.0,2.0,70,0.00,CLR,,0.00,WeatherDisplay:10.37,2013-10-22 16:35:00,
2013-10-22 11:40:00,40.8,31.4,29.86,WSW,257,1.0,3.0,69,0.00,CLR,,0.00,WeatherDisplay:10.37,2013-10-22 16:40:00,
2013-10-22 11:45:00,41.2,31.8,29.86,WNW,293,0.0,1.0,69,0.00,CLR,,0.00,WeatherDisplay:10.37,2013-10-22 16:45:00,
2013-10-22 11:50:00,41.6,31.4,29.85,WNW,295,0.0,2.0,67,0.00,CLR,,0.00,WeatherDisplay:10.37,2013-10-22 16:50:00,
2013-10-22 11:55:00,41.9,32.1,29.85,WNW,294,1.0,2.0,68,0.00,CLR,,0.00,WeatherDisplay:10.37,2013-10-22 16:55:00,
2013-10-22 12:05:00,41.9,31.3,29.85,WNW,288,0.0,3.0,66,0.00,CLR,,0.00,WeatherDisplay:10.37,2013-10-22 17:05:00,
2013-10-22 12:10:00,42.1,31.6,29.85,WNW,296,0.0,1.0,66,0.00,CLR,,0.00,WeatherDisplay:10.37,2013-10-22 17:10:00,
2013-10-22 12:15:00,42.2,31.6,29.85,West,277,1.0,4.0,66,0.00,CLR,,0.00,WeatherDisplay:10.37,2013-10-22 17:15:00,
2013-10-22 12:20:00,42.6,32.0,29.85,West,270,0.0,2.0,66,0.00,CLR,,0.00,WeatherDisplay:10.37,2013-10-22 17:20:00,
2013-10-22 12:25:00,42.5,31.6,29.85,West,279,1.0,3.0,65,0.00,CLR,,0.00,WeatherDisplay:10.37,2013-10-22 17:25:00,
2013-10-22 12:30:00,42.8,31.5,29.85,WNW,283,0.0,4.0,64,0.00,CLR,,0.00,WeatherDisplay:10.37,2013-10-22 17:30:00,
2013-10-22 12:35:00,42.9,32.3,29.84,West,278,1.0,3.0,66,0.00,CLR,,0.00,WeatherDisplay:10.37,2013-10-22 17:35:00,
2013-10-22 12:40:00,43.1,32.2,29.84,West,277,1.0,3.0,65,0.00,CLR,,0.00,WeatherDisplay:10.37,2013-10-22 17:40:00,
2013-10-22 12:45:00,42.5,30.0,29.84,WNW,295,0.0,4.0,61,0.00,CLR,,0.00,WeatherDisplay:10.37,2013-10-22 17:45:00,
2013-10-22 12:50:00,42.2,30.9,29.83,WNW,296,0.0,3.0,64,0.00,CLR,,0.00,WeatherDisplay:10.37,2013-10-22 17:50:00,
2013-10-22 12:55:00,42.3,30.6,29.83,NW,325,1.0,4.0,63,0.00,CLR,,0.00,WeatherDisplay:10.37,2013-10-22 17:55:00,
2013-10-22 13:00:00,42.3,29.8,29.83,NNW,347,1.0,8.0,61,0.00,CLR,,0.00,WeatherDisplay:10.37,2013-10-22 18:00:00,
2013-10-22 13:05:00,42.4,29.9,29.83,North,353,0.0,3.0,61,0.00,CLR,,0.00,WeatherDisplay:10.37,2013-10-22 18:05:00,
2013-10-22 13:10:00,42.3,29.8,29.83,NNW,336,1.0,8.0,61,0.00,CLR,,0.00,WeatherDisplay:10.37,2013-10-22 18:10:00,
2013-10-22 13:15:00,42.4,30.7,29.83,NNW,339,0.0,4.0,63,0.00,CLR,,0.00,WeatherDisplay:10.37,2013-10-22 18:15:00,
2013-10-22 13:20:00,42.5,30.0,29.82,NNW,345,0.0,2.0,61,0.00,CLR,,0.00,WeatherDisplay:10.37,2013-10-22 18:20:00,
2013-10-22 13:25:00,42.6,30.0,29.82,NNW,333,2.0,4.0,61,0.00,CLR,,0.00,WeatherDisplay:10.37,2013-10-22 18:25:00,
2013-10-22 13:35:00,42.2,30.1,29.82,NNW,332,1.0,4.0,62,0.00,CLR,,0.00,WeatherDisplay:10.37,2013-10-22 18:35:00,
2013-10-22 13:40:00,42.1,30.0,29.82,NW,323,1.0,6.0,62,0.00,CLR,,0.00,WeatherDisplay:10.37,2013-10-22 18:40:00,
2013-10-22 13:45:00,42.2,30.1,29.82,NNW,335,3.0,8.0,62,0.00,CLR,,0.00,WeatherDisplay:10.37,2013-10-22 18:45:00,
2013-10-22 13:50:00,42.6,29.7,29.82,NNW,343,5.0,9.0,60,0.00,CLR,,0.00,WeatherDisplay:10.37,2013-10-22 18:50:00,
2013-10-22 13:55:00,42.6,29.3,29.82,North,350,2.0,9.0,59,0.00,CLR,,0.00,WeatherDisplay:10.37,2013-10-22 18:55:00,
2013-10-22 14:00:00,42.6,29.7,29.82,North,350,0.0,4.0,60,0.00,CLR,,0.00,WeatherDisplay:10.37,2013-10-22 19:00:00,
2013-10-22 14:05:00,42.6,30.5,29.82,NNW,327,0.0,3.0,62,0.00,CLR,,0.00,WeatherDisplay:10.37,2013-10-22 19:05:00,
2013-10-22 14:10:00,42.5,29.2,29.82,NNW,335,1.0,4.0,59,0.00,CLR,,0.00,WeatherDisplay:10.37,2013-10-22 19:10:00,
2013-10-22 14:15:00,42.5,29.6,29.82,NW,318,0.0,3.0,60,0.00,CLR,,0.00,WeatherDisplay:10.37,2013-10-22 19:15:00,
2013-10-22 14:20:00,42.8,31.1,29.82,WNW,284,0.0,3.0,63,0.00,CLR,,0.00,WeatherDisplay:10.37,2013-10-22 19:20:00,
2013-10-22 14:25:00,42.9,30.4,29.82,WNW,291,0.0,1.0,61,0.00,CLR,,0.00,WeatherDisplay:10.37,2013-10-22 19:25:00,
2013-10-22 14:30:00,42.9,30.0,29.82,NNW,341,0.0,3.0,60,0.00,CLR,,0.00,WeatherDisplay:10.37,2013-10-22 19:30:00,
2013-10-22 14:35:00,43.1,31.4,29.82,North,3,0.0,3.0,63,0.00,CLR,,0.00,WeatherDisplay:10.37,2013-10-22 19:35:00,
2013-10-22 14:40:00,43.3,30.7,29.82,NNW,334,0.0,4.0,61,0.00,CLR,,0.00,WeatherDisplay:10.37,2013-10-22 19:40:00,
2013-10-22 14:45:00,43.2,30.2,29.82,NNW,340,0.0,1.0,60,0.00,CLR,,0.00,WeatherDisplay:10.37,2013-10-22 19:45:00,
2013-10-22 14:50:00,43.2,31.4,29.82,North,350,0.0,3.0,63,0.00,CLR,,0.00,WeatherDisplay:10.37,2013-10-22 19:50:00,
2013-10-22 14:55:00,43.3,30.7,29.82,NNW,345,0.0,2.0,61,0.00,CLR,,0.00,WeatherDisplay:10.37,2013-10-22 19:55:00,
2013-10-22 15:00:00,43.8,32.0,29.82,NNW,340,0.0,0.0,63,0.00,CLR,,0.00,WeatherDisplay:10.37,2013-10-22 20:00:00,
2013-10-22 15:05:00,43.8,30.4,29.81,NNW,341,0.0,1.0,59,0.00,CLR,,0.00,WeatherDisplay:10.37,2013-10-22 20:05:00,
2013-10-22 15:10:00,43.9,31.3,29.81,NNW,341,0.0,2.0,61,0.00,CLR,,0.00,WeatherDisplay:10.37,2013-10-22 20:10:00,
2013-10-22 15:15:00,43.9,29.7,29.81,NNW,331,0.0,3.0,57,0.00,CLR,,0.00,WeatherDisplay:10.37,2013-10-22 20:15:00,
2013-10-22 15:20:00,43.9,30.1,29.81,NW,304,0.0,0.0,58,0.00,CLR,,0.00,WeatherDisplay:10.37,2013-10-22 20:20:00,
2013-10-22 15:30:00,44.1,29.8,29.81,NW,304,0.0,1.0,57,0.00,CLR,,0.00,WeatherDisplay:10.37,2013-10-22 20:30:00,
2013-10-22 15:35:00,44.1,28.9,29.81,NW,304,0.0,0.0,55,0.00,CLR,,0.00,WeatherDisplay:10.37,2013-10-22 20:35:00,
2013-10-22 15:40:00,44.1,29.4,29.81,NW,304,0.0,2.0,56,0.00,CLR,,0.00,WeatherDisplay:10.37,2013-10-22 20:40:00,
2013-10-22 15:45:00,44.2,29.9,29.81,NW,304,0.0,1.0,57,0.00,CLR,,0.00,WeatherDisplay:10.37,2013-10-22 20:45:00,
2013-10-22 15:50:00,44.2,29.5,29.81,NW,305,0.0,0.0,56,0.00,CLR,,0.00,WeatherDisplay:10.37,2013-10-22 20:50:00,
2013-10-22 15:55:00,44.2,30.8,29.81,NW,305,0.0,1.0,59,0.00,CLR,,0.00,WeatherDisplay:10.37,2013-10-22 20:55:00,
2013-10-22 16:00:00,44.3,29.1,29.81,NW,305,0.0,2.0,55,0.00,CLR,,0.00,WeatherDisplay:10.37,2013-10-22 21:00:00,
2013-10-22 16:05:00,44.2,29.9,29.82,NW,305,0.0,1.0,57,0.00,CLR,,0.00,WeatherDisplay:10.37,2013-10-22 21:05:00,
2013-10-22 16:10:00,44.3,30.4,29.82,NW,305,0.0,0.0,58,0.00,CLR,,0.00,WeatherDisplay:10.37,2013-10-22 21:10:00,
2013-10-22 16:15:00,44.2,29.0,29.82,NW,304,0.0,0.0,55,0.00,CLR,,0.00,WeatherDisplay:10.37,2013-10-22 21:15:00,
2013-10-22 16:20:00,44.2,29.0,29.82,NW,311,1.0,3.0,55,0.00,CLR,,0.00,WeatherDisplay:10.37,2013-10-22 21:20:00,
2013-10-22 16:25:00,44.2,29.0,29.82,NNW,336,3.0,6.0,55,0.00,CLR,,0.00,WeatherDisplay:10.37,2013-10-22 21:25:00,
2013-10-22 16:30:00,44.1,28.9,29.82,NNW,345,1.0,6.0,55,0.00,CLR,,0.00,WeatherDisplay:10.37,2013-10-22 21:30:00,
2013-10-22 16:35:00,44.1,28.5,29.82,NNW,346,3.0,6.0,54,0.00,CLR,,0.00,WeatherDisplay:10.37,2013-10-22 21:35:00,
2013-10-22 16:40:00,43.9,28.3,29.82,NNW,346,0.0,3.0,54,0.00,CLR,,0.00,WeatherDisplay:10.37,2013-10-22 21:40:00,
2013-10-22 16:45:00,44.1,28.5,29.82,North,350,0.0,3.0,54,0.00,CLR,,0.00,WeatherDisplay:10.37,2013-10-22 21:45:00,
2013-10-22 16:50:00,44.1,28.0,29.82,North,350,0.0,3.0,53,0.00,CLR,,0.00,WeatherDisplay:10.37,2013-10-22 21:50:00,
2013-10-22 16:55:00,44.1,28.9,29.82,North,350,1.0,3.0,55,0.00,CLR,,0.00,WeatherDisplay:10.37,2013-10-22 21:55:00,
2013-10-22 17:00:00,44.2,28.1,29.82,NNW,340,1.0,8.0,53,0.00,CLR,,0.00,WeatherDisplay:10.37,2013-10-22 22:00:00,
2013-10-22 17:05:00,44.3,28.2,29.82,NNW,331,1.0,5.0,53,0.00,CLR,,0.00,WeatherDisplay:10.37,2013-10-22 22:05:00,
2013-10-22 17:10:00,44.2,28.1,29.82,NNW,335,3.0,6.0,53,0.00,CLR,,0.00,WeatherDisplay:10.37,2013-10-22 22:10:00,
2013-10-22 17:15:00,43.8,28.7,29.82,NNW,339,1.0,9.0,55,0.00,CLR,,0.00,WeatherDisplay:10.37,2013-10-22 22:15:00,
2013-10-22 17:20:00,43.6,28.5,29.83,NNW,338,1.0,3.0,55,0.00,CLR,,0.00,WeatherDisplay:10.37,2013-10-22 22:20:00,
2013-10-22 17:25:00,43.5,28.8,29.83,NNW,337,1.0,6.0,56,0.00,CLR,,0.00,WeatherDisplay:10.37,2013-10-22 22:25:00,
2013-10-22 17:30:00,43.2,28.5,29.83,NNW,338,0.0,4.0,56,0.00,CLR,,0.00,WeatherDisplay:10.37,2013-10-22 22:30:00,
2013-10-22 17:35:00,43.1,28.9,29.83,NNW,340,0.0,4.0,57,0.00,CLR,,0.00,WeatherDisplay:10.37,2013-10-22 22:35:00,
2013-10-22 17:40:00,42.8,28.6,29.83,NNW,343,0.0,3.0,57,0.00,CLR,,0.00,WeatherDisplay:10.37,2013-10-22 22:40:00,
2013-10-22 17:45:00,42.5,28.3,29.83,NNW,343,0.0,2.0,57,0.00,CLR,,0.00,WeatherDisplay:10.37,2013-10-22 22:45:00,
2013-10-22 17:50:00,42.3,29.0,29.83,NNW,344,1.0,4.0,59,0.00,CLR,,0.00,WeatherDisplay:10.37,2013-10-22 22:50:00,
2013-10-22 17:55:00,42.2,28.9,29.83,NW,319,0.0,4.0,59,0.00,CLR,,0.00,WeatherDisplay:10.37,2013-10-22 22:55:00,
2013-10-22 18:00:00,41.9,29.0,29.83,NW,309,0.0,3.0,60,0.00,CLR,,0.00,WeatherDisplay:10.37,2013-10-22 23:00:00,
2013-10-22 18:05:00,41.6,28.7,29.83,NW,318,0.0,3.0,60,0.00,CLR,,0.00,WeatherDisplay:10.37,2013-10-22 23:05:00,
2013-10-22 18:10:00,41.5,29.0,29.83,NNW,327,0.0,2.0,61,0.00,CLR,,0.00,WeatherDisplay:10.37,2013-10-22 23:10:00,
2013-10-22 18:15:00,41.2,29.2,29.83,NNW,328,0.0,2.0,62,0.00,CLR,,0.00,WeatherDisplay:10.37,2013-10-22 23:15:00,
2013-10-22 18:20:00,41.1,29.1,29.83,NNW,329,0.0,1.0,62,0.00,CLR,,0.00,WeatherDisplay:10.37,2013-10-22 23:20:00,
2013-10-22 18:25:00,41.0,29.4,29.83,NNW,329,0.0,2.0,63,0.00,CLR,,0.00,WeatherDisplay:10.37,2013-10-22 23:25:00,
2013-10-22 18:30:00,40.9,29.3,29.83,NNW,328,0.0,2.0,63,0.00,CLR,,0.00,WeatherDisplay:10.37,2013-10-22 23:30:00,
2013-10-22 18:35:00,41.0,29.4,29.83,NNW,328,0.0,2.0,63,0.00,CLR,,0.00,WeatherDisplay:10.37,2013-10-22 23:35:00,
2013-10-22 18:40:00,41.1,29.1,29.83,NNW,328,0.0,3.0,62,0.00,CLR,,0.00,WeatherDisplay:10.37,2013-10-22 23:40:00,
2013-10-22 18:45:00,41.2,29.2,29.83,NW,325,0.0,3.0,62,0.00,CLR,,0.00,WeatherDisplay:10.37,2013-10-22 23:45:00,
2013-10-22 18:50:00,41.2,29.5,29.83,NW,322,0.0,4.0,63,0.00,CLR,,0.00,WeatherDisplay:10.37,2013-10-22 23:50:00,
2013-10-22 18:55:00,41.1,29.5,29.83,NW,326,0.0,3.0,63,0.00,CLR,,0.00,WeatherDisplay:10.37,2013-10-22 23:55:00,
2013-10-22 19:00:00,41.1,29.1,29.83,NNW,328,1.0,2.0,62,0.00,CLR,,0.00,WeatherDisplay:10.37,2013-10-23 00:00:00,
2013-10-22 19:05:00,41.1,29.1,29.84,NNW,327,0.0,3.0,62,0.00,CLR,,0.00,WeatherDisplay:10.37,2013-10-23 00:05:00,
2013-10-22 19:10:00,40.9,29.3,29.84,NW,323,1.0,3.0,63,0.00,CLR,,0.00,WeatherDisplay:10.37,2013-10-23 00:10:00,
2013-10-22 19:15:00,40.8,29.6,29.84,NW,325,0.0,4.0,64,0.00,CLR,,0.00,WeatherDisplay:10.37,2013-10-23 00:15:00,
2013-10-22 19:20:00,40.6,29.4,29.84,NNW,333,1.0,3.0,64,0.00,CLR,,0.00,WeatherDisplay:10.37,2013-10-23 00:20:00,
2013-10-22 19:25:00,40.6,29.3,29.84,NNW,337,1.0,4.0,64,0.00,CLR,,0.00,WeatherDisplay:10.37,2013-10-23 00:25:00,
2013-10-22 19:30:00,40.5,29.3,29.84,NNW,334,0.0,2.0,64,0.00,CLR,,0.00,WeatherDisplay:10.37,2013-10-23 00:30:00,
2013-10-22 19:35:00,40.5,29.3,29.84,NNW,332,0.0,0.0,64,0.00,CLR,,0.00,WeatherDisplay:10.37,2013-10-23 00:35:00,
2013-10-22 19:40:00,40.3,29.5,29.84,NNW,332,0.0,0.0,65,0.00,CLR,,0.00,WeatherDisplay:10.37,2013-10-23 00:40:00,
2013-10-22 19:45:00,40.3,29.5,29.84,NNW,332,0.0,0.0,65,0.00,CLR,,0.00,WeatherDisplay:10.37,2013-10-23 00:45:00,
2013-10-22 19:50:00,40.2,29.7,29.84,NNW,332,0.0,0.0,66,0.00,CLR,,0.00,WeatherDisplay:10.37,2013-10-23 00:50:00,
2013-10-22 19:55:00,40.2,29.7,29.84,NNW,332,0.0,0.0,66,0.00,CLR,,0.00,WeatherDisplay:10.37,2013-10-23 00:55:00,
2013-10-22 20:00:00,40.2,30.1,29.84,NNW,332,1.0,3.0,67,0.00,CLR,,0.00,WeatherDisplay:10.37,2013-10-23 01:00:00,
2013-10-22 20:05:00,40.1,30.0,29.84,NNW,332,0.0,4.0,67,0.00,CLR,,0.00,WeatherDisplay:10.37,2013-10-23 01:05:00,
2013-10-22 20:10:00,39.9,29.8,29.84,NNW,332,1.0,3.0,67,0.00,CLR,,0.00,WeatherDisplay:10.37,2013-10-23 01:10:00,
2013-10-22 20:15:00,39.9,29.8,29.84,NNW,335,1.0,4.0,67,0.00,CLR,,0.00,WeatherDisplay:10.37,2013-10-23 01:15:00,
2013-10-22 20:20:00,39.9,30.2,29.85,NNW,342,1.0,3.0,68,0.00,CLR,,0.00,WeatherDisplay:10.37,2013-10-23 01:20:00,
2013-10-22 20:25:00,40.1,30.4,29.85,NNW,346,1.0,3.0,68,0.00,CLR,,0.00,WeatherDisplay:10.37,2013-10-23 01:25:00,
2013-10-22 20:30:00,39.9,30.2,29.85,NNW,345,1.0,3.0,68,0.00,CLR,,0.00,WeatherDisplay:10.37,2013-10-23 01:30:00,
2013-10-22 20:35:00,39.9,30.5,29.85,NNW,344,1.0,3.0,69,0.00,CLR,,0.00,WeatherDisplay:10.37,2013-10-23 01:35:00,
2013-10-22 20:40:00,39.9,30.5,29.85,NNW,344,1.0,3.0,69,0.00,CLR,,0.00,WeatherDisplay:10.37,2013-10-23 01:40:00,
2013-10-22 20:45:00,39.8,30.5,29.85,NNW,344,0.0,3.0,69,0.00,CLR,,0.00,WeatherDisplay:10.37,2013-10-23 01:45:00,
2013-10-22 20:50:00,39.8,30.1,29.85,NNW,343,1.0,4.0,68,0.00,CLR,,0.00,WeatherDisplay:10.37,2013-10-23 01:50:00,
2013-10-22 20:55:00,39.6,30.3,29.85,NNW,342,0.0,4.0,69,0.00,CLR,,0.00,WeatherDisplay:10.37,2013-10-23 01:55:00,
2013-10-22 21:00:00,39.5,29.8,29.85,NNW,342,0.0,2.0,68,0.00,CLR,,0.00,WeatherDisplay:10.37,2013-10-23 02:00:00,
2013-10-22 21:05:00,39.5,29.8,29.86,NNW,342,0.0,0.0,68,0.00,CLR,,0.00,WeatherDisplay:10.37,2013-10-23 02:05:00,
2013-10-22 21:10:00,39.5,29.8,29.86,NNW,342,0.0,2.0,68,0.00,CLR,,0.00,WeatherDisplay:10.37,2013-10-23 02:10:00,
2013-10-22 21:15:00,39.3,30.0,29.86,NNW,342,0.0,3.0,69,0.00,CLR,,0.00,WeatherDisplay:10.37,2013-10-23 02:15:00,
2013-10-22 21:20:00,39.3,29.6,29.86,NNW,341,1.0,4.0,68,0.00,CLR,,0.00,WeatherDisplay:10.37,2013-10-23 02:20:00,
2013-10-22 21:25:00,39.2,29.9,29.86,NNW,342,0.0,3.0,69,0.00,CLR,,0.00,WeatherDisplay:10.37,2013-10-23 02:25:00,
2013-10-22 21:30:00,39.2,29.5,29.86,NNW,342,0.0,3.0,68,0.00,CLR,,0.00,WeatherDisplay:10.37,2013-10-23 02:30:00,
2013-10-22 21:35:00,39.2,29.5,29.86,NNW,342,0.0,0.0,68,0.00,CLR,,0.00,WeatherDisplay:10.37,2013-10-23 02:35:00,
2013-10-22 21:40:00,39.2,29.5,29.86,NNW,342,0.0,2.0,68,0.00,CLR,,0.00,WeatherDisplay:10.37,2013-10-23 02:40:00,
2013-10-22 21:45:00,39.2,29.5,29.86,NNW,342,0.0,2.0,68,0.00,CLR,,0.00,WeatherDisplay:10.37,2013-10-23 02:45:00,
2013-10-22 21:50:00,39.1,29.8,29.86,NNW,342,0.0,0.0,69,0.00,CLR,,0.00,WeatherDisplay:10.37,2013-10-23 02:50:00,
2013-10-22 21:55:00,38.9,29.9,29.86,NNW,342,0.0,2.0,70,0.00,CLR,,0.00,WeatherDisplay:10.37,2013-10-23 02:55:00,
2013-10-22 22:00:00,38.9,29.6,29.86,NNW,342,1.0,2.0,69,0.00,CLR,,0.00,WeatherDisplay:10.37,2013-10-23 03:00:00,
2013-10-22 22:05:00,38.9,29.6,29.86,NNW,342,0.0,2.0,69,0.00,CLR,,0.00,WeatherDisplay:10.37,2013-10-23 03:05:00,
2013-10-22 22:10:00,38.9,29.6,29.86,NNW,342,0.0,0.0,69,0.00,CLR,,0.00,WeatherDisplay:10.37,2013-10-23 03:10:00,
2013-10-22 22:15:00,38.9,29.9,29.86,NNW,342,0.0,2.0,70,0.00,CLR,,0.00,WeatherDisplay:10.37,2013-10-23 03:15:00,
2013-10-22 22:20:00,38.9,29.9,29.86,NNW,342,0.0,3.0,70,0.00,CLR,,0.00,WeatherDisplay:10.37,2013-10-23 03:20:00,
2013-10-22 22:25:00,38.8,29.8,29.86,NNW,342,0.0,0.0,70,0.00,CLR,,0.00,WeatherDisplay:10.37,2013-10-23 03:25:00,
2013-10-22 22:30:00,38.9,29.9,29.86,NNW,342,0.0,3.0,70,0.00,CLR,,0.00,WeatherDisplay:10.37,2013-10-23 03:30:00,
2013-10-22 22:35:00,38.8,30.2,29.86,NNW,342,0.0,1.0,71,0.00,CLR,,0.00,WeatherDisplay:10.37,2013-10-23 03:35:00,
2013-10-22 22:40:00,38.8,30.5,29.86,NNW,340,3.0,8.0,72,0.00,CLR,,0.00,WeatherDisplay:10.37,2013-10-23 03:40:00,
2013-10-22 22:45:00,38.8,30.2,29.86,NNW,342,2.0,9.0,71,0.00,CLR,,0.00,WeatherDisplay:10.37,2013-10-23 03:45:00,
2013-10-22 22:50:00,38.6,30.0,29.86,North,355,6.0,10.0,71,0.00,CLR,,0.00,WeatherDisplay:10.37,2013-10-23 03:50:00,
2013-10-22 22:55:00,38.5,29.6,29.86,North,355,3.0,10.0,70,0.00,CLR,,0.00,WeatherDisplay:10.37,2013-10-23 03:55:00,
2013-10-22 23:00:00,38.3,29.4,29.86,North,349,2.0,9.0,70,0.00,CLR,,0.00,WeatherDisplay:10.37,2013-10-23 04:00:00,
2013-10-22 23:05:00,38.2,28.9,29.86,NNW,345,1.0,9.0,69,0.00,CLR,,0.00,WeatherDisplay:10.37,2013-10-23 04:05:00,
2013-10-22 23:10:00,38.0,28.7,29.86,North,353,5.0,9.0,69,0.00,CLR,,0.00,WeatherDisplay:10.37,2013-10-23 04:10:00,
2013-10-22 23:15:00,37.9,28.6,29.86,North,352,3.0,12.0,69,0.00,CLR,,0.00,WeatherDisplay:10.37,2013-10-23 04:15:00,
2013-10-22 23:20:00,37.8,28.2,29.86,NNW,348,7.0,12.0,68,0.00,CLR,,0.00,WeatherDisplay:10.37,2013-10-23 04:20:00,
2013-10-22 23:25:00,37.6,28.0,29.86,North,358,2.0,13.0,68,0.00,CLR,,0.00,WeatherDisplay:10.37,2013-10-23 04:25:00,
2013-10-22 23:30:00,37.3,27.3,29.86,North,10,7.0,14.0,67,0.00,CLR,,0.00,WeatherDisplay:10.37,2013-10-23 04:30:00,
2013-10-22 23:40:00,36.9,27.3,29.86,North,1,2.0,9.0,68,0.00,CLR,,0.00,WeatherDisplay:10.37,2013-10-23 04:40:00,
2013-10-22 23:45:00,36.6,27.4,29.86,North,353,2.0,8.0,69,0.00,CLR,,0.00,WeatherDisplay:10.37,2013-10-23 04:45:00,
2013-10-22 23:50:00,36.5,27.3,29.86,NNW,340,2.0,6.0,69,0.00,CLR,,0.00,WeatherDisplay:10.37,2013-10-23 04:50:00,
2013-10-22 23:55:00,36.3,27.1,29.86,NNW,339,1.0,9.0,69,0.00,CLR,,0.00,WeatherDisplay:10.37,2013-10-23 04:55:00,